| time (UTC) | temp F | wind direction | speed MPH | gust MPH | rain 1hr in | rain 24hr in | rain mn in | humidity % | barometer mb |
| 20260903234919 | 80 | 104 | 2.0 | 3.0 | 0.00 | 0.06 | 0.06 | 86 | 1014.1 |
| 20260903234415 | 80 | 80 | 0.0 | 3.0 | 0.00 | 0.06 | 0.06 | 87 | 1014.2 |
| 20260903233912 | 80 | 68 | 0.0 | 3.0 | 0.00 | 0.06 | 0.06 | 88 | 1014.2 |
| 20260903233408 | 80 | 105 | 1.0 | 2.0 | 0.00 | 0.06 | 0.06 | 89 | 1014.2 |
| 20260903232907 | 80 | 74 | 0.0 | 1.0 | 0.00 | 0.06 | 0.06 | 90 | 1014.2 |
| 20260903232403 | 80 | 104 | 1.0 | 2.0 | 0.00 | 0.06 | 0.06 | 90 | 1014.2 |
| 20260903231902 | 80 | 76 | 1.0 | 2.0 | 0.00 | 0.06 | 0.06 | 90 | 1014.4 |
| 20260903231357 | 80 | 85 | 1.0 | 2.0 | 0.00 | 0.06 | 0.06 | 89 | 1014.3 |
| 20260903230852 | 80 | 97 | 1.0 | 2.0 | 0.00 | 0.06 | 0.06 | 89 | 1014.3 |
| 20260903230347 | 80 | 76 | 1.0 | 3.0 | 0.00 | 0.06 | 0.06 | 89 | 1014.3 |
| 20260903225844 | 80 | 80 | 2.0 | 3.0 | 0.00 | 0.06 | 0.06 | 88 | 1014.2 |
| 20260903225339 | 81 | 151 | 0.0 | 3.0 | 0.00 | 0.06 | 0.06 | 88 | 1014.2 |
| 20260903224836 | 81 | 352 | 2.0 | 4.0 | 0.00 | 0.06 | 0.06 | 88 | 1014.3 |
| 20260903224331 | 81 | 78 | 0.0 | 3.0 | 0.00 | 0.06 | 0.06 | 89 | 1014.6 |
| 20260903223827 | 81 | 93 | 2.0 | 4.0 | 0.00 | 0.06 | 0.06 | 88 | 1014.6 |
| 20260903223326 | 81 | 72 | 1.0 | 3.0 | 0.00 | 0.06 | 0.06 | 90 | 1014.5 |
| 20260903222821 | 81 | 90 | 2.0 | 6.0 | 0.00 | 0.06 | 0.06 | 90 | 1014.3 |
| 20260903222320 | 81 | 75 | 2.0 | 3.0 | 0.00 | 0.06 | 0.06 | 90 | 1014.8 |
| 20260903221815 | 81 | 116 | 1.0 | 2.0 | 0.00 | 0.06 | 0.06 | 91 | 1014.7 |
| 20260903221314 | 81 | 95 | 2.0 | 4.0 | 0.00 | 0.06 | 0.06 | 91 | 1014.8 |
| 20260903220812 | 81 | 184 | 1.0 | 2.0 | 0.00 | 0.06 | 0.06 | 91 | 1014.6 |
| 20260903220307 | 81 | 97 | 2.0 | 3.0 | 0.00 | 0.06 | 0.06 | 92 | 1014.8 |
| 20260903215804 | 81 | 113 | 3.0 | 4.0 | 0.00 | 0.06 | 0.06 | 92 | 1014.7 |
| 20260903215301 | 82 | 27 | 2.0 | 9.0 | 0.00 | 0.06 | 0.06 | 93 | 1014.8 |
| 20260903214759 | 81 | 96 | 1.0 | 4.0 | 0.00 | 0.06 | 0.06 | 93 | 1014.9 |
| 20260903214255 | 81 | 68 | 2.0 | 3.0 | 0.07 | 0.06 | 0.06 | 93 | 1015.0 |
| 20260903213749 | 81 | 76 | 2.0 | 3.0 | 0.07 | 0.06 | 0.06 | 92 | 1015.2 |
| 20260903213246 | 81 | 106 | 2.0 | 3.0 | 0.00 | 0.05 | 0.05 | 92 | 1015.4 |
| 20260903212741 | 81 | 65 | 0.0 | 2.0 | 0.00 | 0.05 | 0.05 | 91 | 1015.4 |
| 20260903212238 | 82 | 87 | 3.0 | 3.0 | 0.00 | 0.05 | 0.05 | 90 | 1015.2 |
| 20260903211736 | 82 | 71 | 1.0 | 4.0 | 0.00 | 0.05 | 0.05 | 89 | 1015.4 |
| 20260903211233 | 82 | 89 | 2.0 | 3.0 | 0.00 | 0.05 | 0.05 | 88 | 1015.5 |
| 20260903210729 | 82 | 74 | 0.0 | 4.0 | 0.00 | 0.05 | 0.05 | 87 | 1015.5 |
| 20260903210225 | 82 | 92 | 1.0 | 3.0 | 0.00 | 0.05 | 0.05 | 87 | 1015.4 |
| 20260903205724 | 82 | 79 | 1.0 | 2.0 | 0.00 | 0.05 | 0.05 | 87 | 1015.6 |
| 20260903205223 | 82 | 108 | 1.0 | 3.0 | 0.00 | 0.05 | 0.05 | 87 | 1015.5 |
| 20260903204719 | 82 | 58 | 0.0 | 2.0 | 0.00 | 0.05 | 0.05 | 87 | 1015.5 |
| 20260903204215 | 82 | 78 | 0.0 | 2.0 | 0.00 | 0.05 | 0.05 | 87 | 1015.6 |
| 20260903203710 | 82 | 59 | 1.0 | 2.0 | 0.00 | 0.05 | 0.05 | 87 | 1015.5 |
| 20260903203206 | 82 | 56 | 0.0 | 3.0 | 0.00 | 0.05 | 0.05 | 87 | 1015.7 |
| 20260903202705 | 82 | 64 | 0.0 | 1.0 | 0.00 | 0.05 | 0.05 | 87 | 1015.8 |
| 20260903202201 | 82 | 53 | 1.0 | 3.0 | 0.00 | 0.05 | 0.05 | 87 | 1015.6 |
| 20260903201701 | 82 | 58 | 1.0 | 3.0 | 0.00 | 0.05 | 0.05 | 88 | 1015.7 |
| 20260903201156 | 82 | 87 | 2.0 | 3.0 | 0.00 | 0.05 | 0.05 | 89 | 1015.7 |
| 20260903200650 | 81 | 152 | 3.0 | 3.0 | 0.00 | 0.05 | 0.05 | 89 | 1016.0 |
| 20260903200146 | 81 | 100 | 2.0 | 3.0 | 0.00 | 0.05 | 0.05 | 91 | 1015.9 |
| 20260903195642 | 80 | 78 | 2.0 | 4.0 | 0.00 | 0.05 | 0.05 | 91 | 1015.8 |
| 20260903195137 | 80 | 82 | 0.0 | 2.0 | 0.00 | 0.05 | 0.05 | 93 | 1016.1 |
| 20260903194637 | 81 | 214 | 2.0 | 4.0 | 0.05 | 0.05 | 0.05 | 93 | 1016.1 |
| 20260903194132 | 80 | 74 | 1.0 | 3.0 | 0.05 | 0.05 | 0.05 | 95 | 1016.2 |
| 20260903193628 | 80 | 98 | 1.0 | 3.0 | 0.00 | 0.04 | 0.04 | 95 | 1016.0 |
| 20260903193123 | 81 | 100 | 2.0 | 4.0 | 0.00 | 0.04 | 0.04 | 96 | 1016.3 |
| 20260903192620 | 80 | 77 | 1.0 | 7.0 | 0.00 | 0.04 | 0.04 | 96 | 1016.3 |
| 20260903192120 | 80 | 85 | 1.0 | 2.0 | 0.00 | 0.04 | 0.04 | 97 | 1016.2 |
| 20260903191616 | 80 | 78 | 2.0 | 3.0 | 0.00 | 0.04 | 0.04 | 97 | 1016.2 |
| 20260903191111 | 80 | 87 | 2.0 | 3.0 | 0.00 | 0.04 | 0.04 | 97 | 1016.4 |
| 20260903190610 | 80 | 66 | 0.0 | 1.0 | 0.00 | 0.04 | 0.04 | 98 | 1016.5 |
| 20260903190105 | 80 | 58 | 0.0 | 0.0 | 0.00 | 0.04 | 0.04 | 98 | 1016.5 |
| 20260903185600 | 80 | 68 | 1.0 | 1.0 | 0.00 | 0.04 | 0.04 | 97 | 1016.5 |
| 20260903185055 | 80 | 62 | 0.0 | 1.0 | 0.07 | 0.04 | 0.04 | 98 | 1016.8 |
| 20260903184552 | 80 | 96 | 0.0 | 1.0 | 0.07 | 0.04 | 0.04 | 98 | 1016.6 |
| 20260903184046 | 79 | 48 | 0.0 | 1.0 | 0.00 | 0.03 | 0.03 | 97 | 1016.6 |
| 20260903183545 | 79 | 60 | 0.0 | 0.0 | 0.00 | 0.03 | 0.03 | 97 | 1016.6 |
| 20260903183041 | 80 | 60 | 0.0 | 1.0 | 0.00 | 0.03 | 0.03 | 97 | 1016.8 |
| 20260903182539 | 80 | 62 | 0.0 | 0.0 | 0.00 | 0.03 | 0.03 | 97 | 1016.6 |
| 20260903182036 | 79 | 57 | 0.0 | 0.0 | 0.00 | 0.03 | 0.03 | 97 | 1016.6 |
| 20260903181535 | 79 | 50 | 0.0 | 0.0 | 0.00 | 0.03 | 0.03 | 97 | 1016.7 |
| 20260903181034 | 79 | 55 | 0.0 | 0.0 | 0.00 | 0.03 | 0.03 | 97 | 1016.8 |
| 20260903180530 | 79 | 56 | 0.0 | 0.0 | 0.05 | 0.03 | 0.03 | 97 | 1016.9 |
| 20260903180029 | 79 | 54 | 0.0 | 0.0 | 0.00 | 0.02 | 0.02 | 97 | 1017.1 |
| 20260903175528 | 79 | 61 | 0.0 | 1.0 | 0.00 | 0.02 | 0.02 | 96 | 1016.9 |
| 20260903175027 | 79 | 55 | 0.0 | 1.0 | 0.00 | 0.02 | 0.02 | 96 | 1017.2 |
| 20260903174522 | 80 | 54 | 0.0 | 0.0 | 0.07 | 0.02 | 0.02 | 96 | 1017.2 |
| 20260903174017 | 79 | 56 | 0.0 | 0.0 | 0.07 | 0.02 | 0.02 | 96 | 1017.4 |
| 20260903173512 | 79 | 55 | 0.0 | 0.0 | 0.00 | 0.01 | 0.01 | 95 | 1017.6 |
| 20260903173008 | 79 | 58 | 0.0 | 0.0 | 0.00 | 0.01 | 0.01 | 96 | 1017.4 |
| 20260903172503 | 79 | 62 | 1.0 | 1.0 | 0.05 | 0.01 | 0.01 | 95 | 1017.8 |
| 20260903171958 | 79 | 79 | 0.0 | 0.0 | 0.05 | 0.01 | 0.01 | 95 | 1018.0 |
| 20260903171453 | 79 | 58 | 0.0 | 1.0 | 0.00 | 0.00 | 0.00 | 94 | 1018.0 |
| 20260903170948 | 80 | 46 | 0.0 | 1.0 | 0.00 | 0.00 | 0.00 | 94 | 1018.1 |
| 20260903170442 | 80 | 55 | 0.0 | 0.0 | 0.00 | 0.00 | 0.00 | 94 | 1017.9 |
| 20260903165942 | 80 | 57 | 0.0 | 0.0 | 0.00 | 0.00 | 0.00 | 94 | 1018.0 |
| 20260903165436 | 80 | 64 | 0.0 | 2.0 | 0.00 | 0.00 | 0.00 | 93 | 1017.9 |
| 20260903164930 | 80 | 52 | 0.0 | 0.0 | 0.00 | 0.00 | 0.00 | 93 | 1017.7 |
| 20260903164425 | 81 | 54 | 0.0 | 0.0 | 0.00 | 0.00 | 0.00 | 93 | 1017.7 |
| 20260903163925 | 81 | 55 | 0.0 | 1.0 | 0.00 | 0.00 | 0.00 | 92 | 1017.8 |
| 20260903163421 | 81 | 71 | 0.0 | 0.0 | 0.00 | 0.00 | 0.00 | 92 | 1017.6 |
| 20260903162917 | 81 | 55 | 0.0 | 1.0 | 0.00 | 0.00 | 0.00 | 92 | 1017.7 |
| 20260903162413 | 81 | 58 | 0.0 | 0.0 | 0.00 | 0.00 | 0.00 | 92 | 1017.7 |
| 20260903161909 | 80 | 55 | 0.0 | 2.0 | 0.00 | 0.00 | 0.00 | 92 | 1017.7 |
| 20260903161403 | 80 | 59 | 0.0 | 0.0 | 0.00 | 0.00 | 0.00 | 92 | 1017.8 |
| 20260903160900 | 80 | 62 | 0.0 | 2.0 | 0.00 | 0.00 | 0.00 | 93 | 1017.8 |
| 20260903160358 | 80 | 95 | 1.0 | 3.0 | 0.00 | 0.00 | 0.00 | 93 | 1017.7 |
| 20260903155857 | 80 | 91 | 1.0 | 1.0 | 0.00 | 0.00 | 0.00 | 93 | 1017.5 |
| 20260903155352 | 80 | 80 | 3.0 | 3.0 | 0.00 | 0.00 | 0.00 | 93 | 1017.4 |
| 20260903154848 | 80 | 76 | 1.0 | 1.0 | 0.00 | 0.00 | 0.00 | 94 | 1017.6 |
| 20260903154344 | 81 | 92 | 0.0 | 2.0 | 0.00 | 0.00 | 0.00 | 93 | 1017.5 |
| 20260903153839 | 81 | 62 | 0.0 | 0.0 | 0.00 | 0.00 | 0.00 | 93 | 1017.6 |
| 20260903153335 | 81 | 56 | 0.0 | 1.0 | 0.00 | 0.00 | 0.00 | 93 | 1017.6 |
| 20260903152832 | 81 | 103 | 0.0 | 1.0 | 0.00 | 0.00 | 0.00 | 92 | 1017.6 |
| 20260903152327 | 82 | 75 | 0.0 | 1.0 | 0.00 | 0.00 | 0.00 | 92 | 1017.5 |
| 20260903151822 | 82 | 50 | 0.0 | 1.0 | 0.00 | 0.00 | 0.00 | 91 | 1017.5 |
| 20260903151318 | 82 | 49 | 0.0 | 1.0 | 0.00 | 0.00 | 0.00 | 91 | 1017.5 |
| 20260903150817 | 82 | 91 | 0.0 | 1.0 | 0.00 | 0.00 | 0.00 | 91 | 1017.5 |
| 20260903150317 | 82 | 59 | 1.0 | 1.0 | 0.00 | 0.00 | 0.00 | 91 | 1017.6 |
| 20260903145812 | 81 | 84 | 1.0 | 2.0 | 0.00 | 0.00 | 0.00 | 91 | 1017.4 |
| 20260903145307 | 81 | 135 | 4.0 | 6.0 | 0.00 | 0.00 | 0.00 | 91 | 1017.3 |
| 20260903144806 | 81 | 106 | 1.0 | 3.0 | 0.00 | 0.00 | 0.00 | 92 | 1017.2 |
| 20260903144302 | 81 | 47 | 3.0 | 4.0 | 0.00 | 0.00 | 0.00 | 92 | 1017.2 |
| 20260903143757 | 81 | 76 | 1.0 | 2.0 | 0.00 | 0.00 | 0.00 | 93 | 1017.3 |
| 20260903143253 | 81 | 72 | 0.0 | 3.0 | 0.00 | 0.00 | 0.00 | 94 | 1017.1 |
| 20260903142749 | 81 | 93 | 2.0 | 2.0 | 0.00 | 0.00 | 0.00 | 94 | 1017.2 |
| 20260903142245 | 80 | 75 | 2.0 | 4.0 | 0.00 | 0.00 | 0.00 | 94 | 1017.0 |
| 20260903141740 | 80 | 70 | 0.0 | 2.0 | 0.00 | 0.00 | 0.00 | 95 | 1017.0 |
| 20260903141236 | 80 | 134 | 3.0 | 4.0 | 0.00 | 0.00 | 0.00 | 95 | 1016.9 |
| 20260903140731 | 80 | 75 | 2.0 | 3.0 | 0.00 | 0.00 | 0.00 | 95 | 1017.0 |
| 20260903140226 | 80 | 86 | 4.0 | 6.0 | 0.00 | 0.00 | 0.00 | 95 | 1017.0 |
| 20260903135722 | 80 | 72 | 1.0 | 3.0 | 0.00 | 0.00 | 0.00 | 95 | 1016.7 |
| 20260903135217 | 80 | 301 | 1.0 | 1.0 | 0.00 | 0.00 | 0.00 | 95 | 1016.7 |
| 20260903134715 | 80 | 53 | 0.0 | 1.0 | 0.00 | 0.00 | 0.00 | 95 | 1016.8 |
| 20260903134212 | 80 | 71 | 1.0 | 1.0 | 0.00 | 0.00 | 0.00 | 96 | 1016.7 |
| 20260903133709 | 80 | 56 | 0.0 | 2.0 | 0.00 | 0.00 | 0.00 | 95 | 1016.7 |
| 20260903133206 | 80 | 77 | 1.0 | 1.0 | 0.00 | 0.00 | 0.00 | 95 | 1016.6 |
| 20260903132705 | 80 | 62 | 0.0 | 4.0 | 0.00 | 0.00 | 0.00 | 95 | 1016.7 |
| 20260903132200 | 80 | 87 | 1.0 | 2.0 | 0.00 | 0.00 | 0.00 | 96 | 1016.6 |
| 20260903131655 | 80 | 58 | 0.0 | 0.0 | 0.00 | 0.00 | 0.00 | 96 | 1016.5 |
| 20260903131155 | 80 | 110 | 2.0 | 2.0 | 0.00 | 0.00 | 0.00 | 96 | 1016.5 |
| 20260903130650 | 80 | 54 | 0.0 | 4.0 | 0.00 | 0.00 | 0.00 | 96 | 1016.5 |
| 20260903130150 | 80 | 55 | 2.0 | 3.0 | 0.00 | 0.00 | 0.00 | 96 | 1016.5 |
| 20260903125648 | 80 | 59 | 0.0 | 2.0 | 0.00 | 0.00 | 0.00 | 96 | 1016.4 |
| 20260903125144 | 80 | 106 | 1.0 | 2.0 | 0.00 | 0.00 | 0.00 | 96 | 1016.3 |
| 20260903124644 | 80 | 68 | 0.0 | 2.0 | 0.00 | 0.00 | 0.00 | 96 | 1016.3 |
| 20260903124143 | 80 | 65 | 1.0 | 3.0 | 0.00 | 0.00 | 0.00 | 96 | 1016.2 |
| 20260903123643 | 80 | 77 | 2.0 | 3.0 | 0.00 | 0.00 | 0.00 | 96 | 1016.0 |
| 20260903123142 | 80 | 91 | 1.0 | 2.0 | 0.00 | 0.00 | 0.00 | 96 | 1016.2 |
| 20260903122641 | 80 | 89 | 1.0 | 2.0 | 0.00 | 0.00 | 0.00 | 96 | 1015.9 |
| 20260903122136 | 79 | 67 | 1.0 | 2.0 | 0.00 | 0.00 | 0.00 | 96 | 1016.0 |
| 20260903121635 | 79 | 90 | 2.0 | 4.0 | 0.00 | 0.00 | 0.00 | 96 | 1015.7 |
| 20260903121131 | 79 | 68 | 1.0 | 3.0 | 0.00 | 0.00 | 0.00 | 96 | 1015.7 |
| 20260903120630 | 79 | 71 | 1.0 | 2.0 | 0.00 | 0.00 | 0.00 | 96 | 1015.8 |
| 20260903120125 | 79 | 78 | 0.0 | 2.0 | 0.00 | 0.00 | 0.00 | 97 | 1015.7 |
| 20260903115623 | 79 | 70 | 1.0 | 1.0 | 0.00 | 0.00 | 0.00 | 97 | 1015.6 |
| 20260903115118 | 79 | 78 | 0.0 | 1.0 | 0.00 | 0.00 | 0.00 | 97 | 1015.5 |
| 20260903114613 | 79 | 67 | 1.0 | 2.0 | 0.00 | 0.00 | 0.00 | 97 | 1015.5 |
| 20260903114109 | 79 | 90 | 0.0 | 1.0 | 0.00 | 0.00 | 0.00 | 97 | 1015.5 |
| 20260903113604 | 79 | 92 | 1.0 | 1.0 | 0.00 | 0.00 | 0.00 | 97 | 1015.4 |
| 20260903113100 | 79 | 78 | 0.0 | 1.0 | 0.00 | 0.00 | 0.00 | 97 | 1015.5 |
| 20260903112557 | 79 | 70 | 0.0 | 0.0 | 0.00 | 0.00 | 0.00 | 97 | 1015.4 |
| 20260903112056 | 79 | 93 | 0.0 | 1.0 | 0.00 | 0.00 | 0.00 | 97 | 1015.4 |
| 20260903111555 | 79 | 58 | 0.0 | 0.0 | 0.00 | 0.00 | 0.00 | 97 | 1015.4 |
| 20260903111051 | 79 | 68 | 0.0 | 3.0 | 0.00 | 0.00 | 0.00 | 97 | 1015.6 |
| 20260903110547 | 79 | 60 | 0.0 | 2.0 | 0.00 | 0.00 | 0.00 | 97 | 1015.5 |
| 20260903110042 | 79 | 80 | 0.0 | 2.0 | 0.00 | 0.00 | 0.00 | 97 | 1015.4 |
| 20260903105537 | 79 | 66 | 0.0 | 0.0 | 0.00 | 0.00 | 0.00 | 97 | 1015.5 |
| 20260903105031 | 79 | 61 | 0.0 | 0.0 | 0.00 | 0.00 | 0.00 | 97 | 1015.5 |
| 20260903104525 | 79 | 47 | 1.0 | 2.0 | 0.00 | 0.00 | 0.00 | 97 | 1015.6 |
| 20260903104021 | 79 | 62 | 0.0 | 1.0 | 0.00 | 0.00 | 0.00 | 97 | 1015.4 |
| 20260903103517 | 79 | 51 | 0.0 | 3.0 | 0.00 | 0.00 | 0.00 | 97 | 1015.3 |
| 20260903103013 | 79 | 60 | 0.0 | 1.0 | 0.00 | 0.00 | 0.00 | 98 | 1015.3 |
| 20260903102508 | 79 | 62 | 0.0 | 2.0 | 0.00 | 0.00 | 0.00 | 97 | 1015.3 |
| 20260903102007 | 79 | 54 | 0.0 | 1.0 | 0.00 | 0.00 | 0.00 | 98 | 1015.4 |
| 20260903101501 | 79 | 52 | 0.0 | 1.0 | 0.00 | 0.00 | 0.00 | 98 | 1015.3 |
| 20260903100957 | 79 | 79 | 0.0 | 1.0 | 0.00 | 0.00 | 0.00 | 98 | 1015.4 |
| 20260903100452 | 79 | 56 | 0.0 | 1.0 | 0.00 | 0.00 | 0.00 | 98 | 1015.5 |
| 20260903095949 | 79 | 58 | 0.0 | 0.0 | 0.00 | 0.00 | 0.00 | 98 | 1015.6 |
| 20260903095443 | 79 | 72 | 0.0 | 0.0 | 0.00 | 0.00 | 0.00 | 98 | 1015.6 |
| 20260903094939 | 79 | 63 | 0.0 | 1.0 | 0.00 | 0.00 | 0.00 | 98 | 1015.7 |
| 20260903094438 | 79 | 57 | 0.0 | 0.0 | 0.00 | 0.00 | 0.00 | 97 | 1015.5 |
| 20260903093935 | 79 | 63 | 1.0 | 2.0 | 0.00 | 0.00 | 0.00 | 98 | 1015.5 |
| 20260903093429 | 79 | 82 | 0.0 | 1.0 | 0.00 | 0.00 | 0.00 | 97 | 1015.4 |
| 20260903092925 | 79 | 47 | 0.0 | 0.0 | 0.00 | 0.00 | 0.00 | 97 | 1015.4 |
| 20260903092425 | 79 | 55 | 0.0 | 1.0 | 0.00 | 0.00 | 0.00 | 98 | 1015.4 |
| 20260903091924 | 79 | 62 | 0.0 | 1.0 | 0.00 | 0.00 | 0.00 | 97 | 1015.4 |
| 20260903091423 | 79 | 59 | 0.0 | 1.0 | 0.00 | 0.00 | 0.00 | 97 | 1015.5 |
| 20260903090918 | 79 | 67 | 0.0 | 0.0 | 0.00 | 0.00 | 0.00 | 97 | 1015.6 |
| 20260903090414 | 79 | 81 | 0.0 | 0.0 | 0.00 | 0.00 | 0.00 | 97 | 1015.5 |
| 20260903085912 | 79 | 64 | 1.0 | 2.0 | 0.00 | 0.00 | 0.00 | 97 | 1015.7 |
| 20260903085410 | 79 | 63 | 0.0 | 2.0 | 0.00 | 0.00 | 0.00 | 98 | 1015.5 |
| 20260903084905 | 79 | 65 | 0.0 | 1.0 | 0.00 | 0.00 | 0.00 | 98 | 1015.6 |
| 20260903084403 | 79 | 60 | 0.0 | 0.0 | 0.00 | 0.00 | 0.00 | 98 | 1015.6 |
| 20260903083859 | 79 | 79 | 0.0 | 1.0 | 0.00 | 0.00 | 0.00 | 97 | 1015.8 |
| 20260903083354 | 79 | 77 | 0.0 | 1.0 | 0.00 | 0.00 | 0.00 | 97 | 1015.7 |
| 20260903082853 | 79 | 85 | 0.0 | 4.0 | 0.00 | 0.00 | 0.00 | 98 | 1015.7 |
| 20260903082348 | 78 | 52 | 0.0 | 1.0 | 0.00 | 0.00 | 0.00 | 97 | 1015.7 |
| 20260903081843 | 78 | 56 | 2.0 | 2.0 | 0.00 | 0.00 | 0.00 | 98 | 1015.4 |
| 20260903081338 | 78 | 59 | 0.0 | 1.0 | 0.00 | 0.00 | 0.00 | 98 | 1015.5 |
| 20260903080835 | 78 | 54 | 0.0 | 0.0 | 0.00 | 0.00 | 0.00 | 98 | 1015.6 |
| 20260903080332 | 78 | 73 | 0.0 | 2.0 | 0.00 | 0.00 | 0.00 | 97 | 1015.5 |
| 20260903075831 | 78 | 76 | 2.0 | 3.0 | 0.00 | 0.00 | 0.00 | 97 | 1015.2 |
| 20260903075326 | 78 | 55 | 0.0 | 3.0 | 0.00 | 0.00 | 0.00 | 98 | 1015.4 |
| 20260903074821 | 78 | 71 | 0.0 | 2.0 | 0.00 | 0.00 | 0.00 | 98 | 1015.3 |
| 20260903074321 | 78 | 55 | 0.0 | 0.0 | 0.00 | 0.00 | 0.00 | 97 | 1015.2 |
| 20260903073816 | 78 | 63 | 0.0 | 0.0 | 0.00 | 0.00 | 0.00 | 97 | 1015.4 |
| 20260903073311 | 78 | 55 | 0.0 | 0.0 | 0.00 | 0.00 | 0.00 | 97 | 1015.2 |
| 20260903072807 | 78 | 64 | 0.0 | 1.0 | 0.00 | 0.00 | 0.00 | 97 | 1015.0 |
| 20260903072306 | 78 | 51 | 0.0 | 0.0 | 0.00 | 0.00 | 0.00 | 97 | 1015.2 |
| 20260903071800 | 78 | 56 | 0.0 | 0.0 | 0.00 | 0.00 | 0.00 | 97 | 1014.9 |
| 20260903071256 | 78 | 55 | 1.0 | 2.0 | 0.00 | 0.00 | 0.00 | 97 | 1015.0 |
| 20260903070750 | 78 | 71 | 0.0 | 0.0 | 0.00 | 0.00 | 0.00 | 96 | 1015.0 |
| 20260903070245 | 78 | 60 | 0.0 | 1.0 | 0.00 | 0.00 | 0.00 | 96 | 1015.0 |
| 20260903065740 | 78 | 67 | 0.0 | 1.0 | 0.00 | 0.00 | 0.00 | 96 | 1015.4 |
| 20260903065240 | 78 | 52 | 1.0 | 2.0 | 0.00 | 0.00 | 0.00 | 96 | 1015.3 |
| 20260903064738 | 78 | 87 | 1.0 | 3.0 | 0.00 | 0.00 | 0.00 | 96 | 1015.4 |
| 20260903064235 | 78 | 53 | 0.0 | 2.0 | 0.00 | 0.00 | 0.00 | 96 | 1015.4 |
| 20260903063731 | 78 | 86 | 1.0 | 2.0 | 0.00 | 0.00 | 0.00 | 96 | 1015.5 |
| 20260903063231 | 77 | 76 | 1.0 | 2.0 | 0.00 | 0.00 | 0.00 | 96 | 1015.4 |
| 20260903062727 | 77 | 95 | 2.0 | 6.0 | 0.00 | 0.00 | 0.00 | 96 | 1015.5 |
| 20260903062226 | 77 | 63 | 1.0 | 2.0 | 0.00 | 0.00 | 0.00 | 96 | 1015.5 |
| 20260903061723 | 77 | 83 | 2.0 | 3.0 | 0.00 | 0.00 | 0.00 | 96 | 1015.5 |
| 20260903061221 | 77 | 61 | 0.0 | 1.0 | 0.00 | 0.00 | 0.00 | 95 | 1015.7 |
| 20260903060717 | 77 | 49 | 0.0 | 1.0 | 0.00 | 0.00 | 0.00 | 95 | 1015.5 |
| 20260903060212 | 77 | 88 | 0.0 | 2.0 | 0.00 | 0.00 | 0.00 | 95 | 1015.4 |
| 20260903055709 | 77 | 118 | 2.0 | 4.0 | 0.00 | 0.00 | 0.00 | 95 | 1015.6 |
| 20260903055208 | 76 | 100 | 2.0 | 3.0 | 0.00 | 0.00 | 0.00 | 96 | 1015.5 |
| 20260903054703 | 76 | 15 | 2.0 | 3.0 | 0.00 | 0.00 | 0.00 | 96 | 1015.6 |
| 20260903054158 | 76 | 50 | 0.0 | 4.0 | 0.00 | 0.00 | 0.00 | 97 | 1015.6 |
| 20260903053654 | 76 | 48 | 0.0 | 3.0 | 0.00 | 0.00 | 0.00 | 97 | 1015.3 |
| 20260903053149 | 76 | 72 | 0.0 | 3.0 | 0.00 | 0.00 | 0.00 | 97 | 1015.5 |
| 20260903052645 | 76 | 74 | 2.0 | 3.0 | 0.00 | 0.00 | 0.00 | 98 | 1015.6 |
| 20260903052141 | 76 | 90 | 1.0 | 6.0 | 0.00 | 0.00 | 0.00 | 98 | 1015.8 |
| 20260903051635 | 76 | 59 | 1.0 | 2.0 | 0.00 | 0.00 | 0.00 | 97 | 1015.7 |
| 20260903051132 | 76 | 52 | 0.0 | 2.0 | 0.00 | 0.00 | 0.00 | 97 | 1015.7 |
| 20260903050631 | 76 | 80 | 1.0 | 3.0 | 0.00 | 0.00 | 0.00 | 97 | 1015.6 |
| 20260903050126 | 76 | 93 | 2.0 | 7.0 | 0.00 | 0.00 | 0.00 | 97 | 1016.0 |
| 20260903045625 | 75 | 87 | 1.0 | 3.0 | 0.00 | 0.57 | 0.57 | 97 | 1016.0 |
| 20260903045122 | 75 | 86 | 2.0 | 4.0 | 0.00 | 0.57 | 0.57 | 98 | 1015.8 |
| 20260903044618 | 75 | 53 | 1.0 | 4.0 | 0.00 | 0.57 | 0.57 | 98 | 1015.8 |
| 20260903044113 | 75 | 113 | 4.0 | 4.0 | 0.00 | 0.57 | 0.57 | 98 | 1015.9 |
| 20260903043609 | 75 | 125 | 1.0 | 7.0 | 0.00 | 0.57 | 0.57 | 98 | 1015.9 |
| 20260903043108 | 75 | 86 | 1.0 | 3.0 | 0.00 | 0.57 | 0.57 | 98 | 1016.0 |
| 20260903042558 | 75 | 70 | 1.0 | 4.0 | 0.00 | 0.57 | 0.57 | 98 | 1015.9 |
| 20260903042053 | 75 | 78 | 1.0 | 2.0 | 0.00 | 0.57 | 0.57 | 98 | 1016.1 |
| 20260903041549 | 75 | 63 | 1.0 | 3.0 | 0.00 | 0.57 | 0.57 | 98 | 1015.9 |
| 20260903041045 | 75 | 115 | 5.0 | 7.0 | 0.00 | 0.57 | 0.57 | 98 | 1016.1 |
| 20260903040543 | 75 | 77 | 2.0 | 6.0 | 0.00 | 0.57 | 0.57 | 98 | 1016.2 |
| 20260903040040 | 75 | 96 | 1.0 | 4.0 | 0.00 | 0.57 | 0.57 | 98 | 1016.1 |
| 20260903035535 | 76 | 129 | 3.0 | 6.0 | 0.00 | 0.57 | 0.57 | 98 | 1016.1 |
| 20260903035026 | 76 | 104 | 4.0 | 4.0 | 0.00 | 0.57 | 0.57 | 98 | 1016.2 |
| 20260903034525 | 76 | 72 | 3.0 | 6.0 | 0.00 | 0.57 | 0.57 | 98 | 1016.2 |
| 20260903034020 | 76 | 78 | 1.0 | 6.0 | 0.00 | 0.57 | 0.57 | 98 | 1016.2 |
| 20260903033515 | 76 | 63 | 2.0 | 7.0 | 0.00 | 0.57 | 0.57 | 98 | 1016.2 |
| 20260903033011 | 76 | 84 | 2.0 | 7.0 | 0.00 | 0.57 | 0.57 | 98 | 1016.3 |
| 20260903032506 | 76 | 40 | 2.0 | 6.0 | 0.00 | 0.57 | 0.57 | 98 | 1016.3 |
| 20260903032001 | 77 | 90 | 4.0 | 6.0 | 0.00 | 0.57 | 0.57 | 98 | 1016.4 |
| 20260903031500 | 77 | 88 | 2.0 | 4.0 | 0.00 | 0.57 | 0.57 | 98 | 1016.3 |
| 20260903030950 | 77 | 98 | 3.0 | 6.0 | 0.00 | 0.57 | 0.57 | 98 | 1016.2 |
| 20260903030446 | 77 | 51 | 2.0 | 8.0 | 0.00 | 0.57 | 0.57 | 98 | 1016.0 |
| 20260903025941 | 77 | 97 | 2.0 | 3.0 | 0.00 | 0.57 | 0.57 | 98 | 1015.8 |
| 20260903025437 | 77 | 104 | 3.0 | 6.0 | 0.00 | 0.57 | 0.57 | 98 | 1015.9 |
| 20260903024933 | 77 | 99 | 2.0 | 6.0 | 0.07 | 0.57 | 0.57 | 97 | 1015.9 |
| 20260903024431 | 77 | 133 | 3.0 | 6.0 | 0.31 | 0.57 | 0.57 | 97 | 1015.6 |
| 20260903023926 | 78 | 137 | 4.0 | 6.0 | 0.83 | 0.56 | 0.56 | 97 | 1016.0 |
| 20260903023423 | 78 | 18 | 2.0 | 10.0 | 1.37 | 0.50 | 0.50 | 96 | 1016.0 |
| 20260903022918 | 78 | 98 | 2.0 | 6.0 | 1.87 | 0.39 | 0.39 | 95 | 1016.1 |
| 20260903022416 | 80 | 145 | 2.0 | 3.0 | 1.32 | 0.22 | 0.22 | 92 | 1016.3 |
| 20260903021915 | 81 | 139 | 2.0 | 4.0 | 0.42 | 0.07 | 0.07 | 90 | 1016.1 |
| 20260903021411 | 82 | 347 | 3.0 | 4.0 | 0.00 | 0.00 | 0.00 | 86 | 1016.0 |
| 20260903020910 | 82 | 35 | 0.0 | 1.0 | 0.00 | 0.00 | 0.00 | 82 | 1015.9 |
| 20260903020406 | 82 | 27 | 1.0 | 2.0 | 0.00 | 0.00 | 0.00 | 82 | 1015.5 |
| 20260903015900 | 82 | 44 | 0.0 | 3.0 | 0.00 | 0.00 | 0.00 | 82 | 1014.8 |
| 20260903015350 | 82 | 67 | 2.0 | 7.0 | 0.00 | 0.00 | 0.00 | 82 | 1014.4 |
| 20260903014845 | 82 | 97 | 4.0 | 8.0 | 0.00 | 0.00 | 0.00 | 81 | 1014.6 |
| 20260903014340 | 83 | 40 | 1.0 | 3.0 | 0.00 | 0.00 | 0.00 | 79 | 1014.5 |
| 20260903013835 | 83 | 88 | 2.0 | 3.0 | 0.00 | 0.00 | 0.00 | 79 | 1014.4 |
| 20260903013334 | 82 | 35 | 1.0 | 1.0 | 0.00 | 0.00 | 0.00 | 79 | 1014.2 |
| 20260903012833 | 82 | 52 | 1.0 | 3.0 | 0.00 | 0.00 | 0.00 | 79 | 1014.0 |
| 20260903012327 | 82 | 66 | 1.0 | 2.0 | 0.00 | 0.00 | 0.00 | 80 | 1013.9 |
| 20260903011821 | 82 | 55 | 1.0 | 2.0 | 0.00 | 0.00 | 0.00 | 79 | 1013.9 |
| 20260903011321 | 82 | 56 | 3.0 | 4.0 | 0.00 | 0.00 | 0.00 | 79 | 1014.1 |
| 20260903010816 | 83 | 49 | 0.0 | 2.0 | 0.00 | 0.00 | 0.00 | 78 | 1014.2 |
| 20260903010311 | 83 | 111 | 0.0 | 1.0 | 0.00 | 0.00 | 0.00 | 78 | 1013.6 |
| 20260903005804 | 83 | 67 | 1.0 | 2.0 | 0.00 | 0.00 | 0.00 | 77 | 1013.7 |
| 20260903005259 | 83 | 155 | 2.0 | 3.0 | 0.00 | 0.00 | 0.00 | 77 | 1013.9 |
| 20260903004755 | 83 | 75 | 2.0 | 3.0 | 0.00 | 0.00 | 0.00 | 76 | 1013.8 |
| 20260903004250 | 83 | 62 | 1.0 | 4.0 | 0.00 | 0.00 | 0.00 | 76 | 1014.0 |
| 20260903003746 | 84 | 68 | 2.0 | 3.0 | 0.00 | 0.00 | 0.00 | 75 | 1014.1 |
| 20260903003240 | 84 | 40 | 1.0 | 2.0 | 0.00 | 0.00 | 0.00 | 75 | 1013.9 |
| 20260903002735 | 84 | 58 | 0.0 | 2.0 | 0.00 | 0.00 | 0.00 | 74 | 1013.7 |
| 20260903002229 | 84 | 113 | 1.0 | 2.0 | 0.00 | 0.00 | 0.00 | 75 | 1013.6 |
| 20260903001725 | 84 | 68 | 0.0 | 1.0 | 0.00 | 0.00 | 0.00 | 75 | 1013.7 |
| 20260903001225 | 84 | 60 | 0.0 | 1.0 | 0.00 | 0.00 | 0.00 | 76 | 1013.6 |
| 20260903000720 | 84 | 100 | 1.0 | 1.0 | 0.00 | 0.00 | 0.00 | 77 | 1013.6 |
| 20260903000219 | 84 | 25 | 0.0 | 1.0 | 0.00 | 0.00 | 0.00 | 77 | 1013.8 |
| 20260902235718 | 85 | 53 | 1.0 | 2.0 | 0.00 | 0.00 | 0.00 | 77 | 1013.9 |